Terug naar catalogus

FENGYUN 1C DEB

ActiefPO
NORAD 31763·DEBRIS·🇨🇳 China

Gelanceerd May 10, 1999 vanaf Taiyuan Satellite Launch Center

Loading…

Volgende Passages (komende 24 uur)

TLE

VersSource: Space-Track

Epoch: Sep 14, 2026, 11:18 UTC

1 31763U 99025CFN 26257.47132106  .00000379  00000-0  24968-3 0  9992
2 31763  98.5160 332.8175 0545135  74.7446 304.0829 13.50962735947282

Volg FENGYUN 1C DEB in realtime met AllMySat

Download on the App Store